[[{"header":{"parameterUnit":"m.s-1","parameterCategory":1,"la1":30.2991,"la2":30.254,"lo1":-89.0895,"lo2":-89.0444,"dy":0.0017,"dx":0.0017,"nx":28,"ny":28,"refTime":"2025-03-01T09:00:00:Z","depth":0,"parameterNumber":2,"parameterNumberName":"U-component_of_WINDS"},"data":[0,0,0,0,0,0,0,0,0,0,0,0,0,0,0,0,0,0,0,0,0,0,0,0,0,0,0,0,0,0,0,0,0,0,0,0,0,0,0,0,0,0,0,0,0,0,0,0,0,0,0,0,0,0,0,0,0,0,-2.6544,-2.6543,0,-2.6508,-2.6507,-2.6507,-2.6424,-2.6422,-2.642,-2.6418,-2.6384,-2.6385,-2.6386,0,0,0,0,0,0,0,0,0,0,0,0,0,-2.6543,-2.6544,-2.6544,-2.6543,-2.6543,-2.6508,-2.6507,-2.6507,-2.6424,-2.6422,-2.642,-2.6418,-2.6384,-2.6385,-2.6386,0,0,0,0,0,0,0,0,0,0,0,0,0,-2.6529,-2.6544,-2.6544,-2.6497,-2.6493,-2.6508,-2.6507,-2.6507,-2.6424,-2.6422,-2.6419,-2.6417,-2.6384,-2.6385,-2.6386,-2.6444,0,0,-2.6389,-2.639,0,0,0,0,0,0,0,0,-2.653,-2.6529,-2.6504,-2.65,-2.6495,-2.6467,-2.6494,-2.6486,-2.6425,-2.645,-2.6418,-2.6415,-2.6414,-2.6413,-2.6412,-2.6443,-2.6441,-2.6389,-2.639,-2.639,-2.6391,0,0,0,0,0,0,0,-2.6531,-2.653,-2.6529,-2.6504,-2.6499,-2.6479,-2.6474,-2.6492,-2.6447,-2.6448,-2.6442,-2.6439,-2.6411,-2.6411,-2.641,-2.6441,-2.6389,-2.639,-2.6391,-2.6391,-2.652,-2.6523,0,0,0,0,0,0,-2.6538,-2.6532,-2.6531,-2.6528,-2.6506,-2.6481,-2.6475,-2.6479,-2.6447,-2.6439,-2.6441,-2.6435,-2.641,-2.6409,-2.6409,-2.6477,-2.639,-2.6391,-2.6392,-2.6517,-2.6521,-2.6524,0,0,0,0,0,0,-2.6539,-2.6539,-2.6532,-2.6528,-2.6526,-2.6484,-2.6488,-2.648,-2.6479,-2.6441,-2.6433,-2.6449,-2.6408,-2.6407,-2.6436,-2.6474,-2.6392,-2.6393,-2.6514,-2.6518,-2.6522,-2.6612,0,0,0,0,0,0,-2.6539,-2.654,-2.6561,-2.6529,-2.6526,-2.656,-2.6491,-2.6481,-2.6481,-2.6473,-2.6447,-2.644,-2.6406,-2.6435,-2.6437,-2.6474,-2.6394,-2.651,-2.6516,-2.6521,-2.6606,-2.6619,-2.663,0,0,0,0,0,-2.6539,-2.6588,-2.6562,-2.6563,-2.6552,-2.6562,-2.656,-2.652,-2.6484,-2.6506,-2.6482,-2.6441,-2.6469,-2.6439,-2.6441,-2.6478,-2.6508,-2.6514,-2.652,-2.66,-2.6617,-2.663,0,0,0,0,0,0,-2.6626,-2.6583,-2.6554,-2.6594,-2.6582,-2.6548,-2.6574,-2.6538,-2.6537,-2.653,-2.648,-2.6475,-2.6511,-2.6497,-2.6464,-2.6534,-2.6482,-2.6489,-2.6542,-2.6557,-2.6569,-2.6573,-2.6394,0,0,0,0,0,-2.6649,-2.666,-2.6622,-2.6661,-2.6657,-2.6617,-2.6619,-2.6589,-2.6575,-2.657,-2.6548,-2.6537,-2.6544,-2.6549,-2.6553,-2.6603,-2.6597,-2.663,-2.6642,-2.6652,-2.666,-2.6687,-2.6701,-2.6544,-2.6544,-2.6544,0,0,-2.6698,-2.6676,-2.6686,-2.6678,-2.6665,-2.6679,-2.6613,-2.663,-2.664,-2.6573,-2.66,-2.6583,-2.6568,-2.6608,-2.6624,-2.6597,-2.6701,-2.666,-2.6669,-2.667,-2.6695,-2.671,-2.6723,-2.6548,-2.6548,-2.6547,0,0,-2.6795,-2.6779,-2.681,-2.6799,-2.678,-2.6753,-2.6761,-2.6732,-2.6718,-2.6744,-2.6694,-2.6706,-2.6718,-2.6709,-2.6707,-2.6801,-2.6764,-2.6804,-2.6869,-2.6896,-2.6908,-2.6919,-2.6955,-2.6968,-2.681,-2.6811,-2.6811,0,-2.6859,-2.6877,-2.6831,-2.6851,-2.685,-2.6789,-2.6821,-2.6812,-2.6797,-2.6798,-2.6767,-2.6782,-2.6767,-2.6805,-2.6828,-2.6827,-2.6836,-2.6807,-2.691,-2.692,-2.693,-2.6963,-2.6976,-2.6816,-2.6815,-2.6815,-2.6814,0,-2.6957,-2.697,-2.6997,-2.6984,-2.6985,-2.7011,-2.697,-2.6977,-2.6947,-2.6924,-2.6952,-2.6931,-2.6931,-2.6937,-2.6908,-2.6972,-2.6956,-2.6918,-2.6865,-2.695,-2.6981,-2.6994,-2.6823,-2.6821,-2.682,-2.6818,0,0,-2.7108,-2.7068,-2.7079,-2.7073,-2.7048,-2.7058,-2.7082,-2.7081,-2.7089,-2.708,-2.71,-2.7112,-2.7077,-2.7074,-2.7043,-2.7067,-2.7145,-2.7026,-2.7025,-2.7051,-2.7217,-2.7247,-2.7263,-2.712,-2.7122,-2.7123,-2.7219,0,-2.7201,-2.7239,-2.7199,-2.7246,-2.7258,-2.7201,-2.7222,-2.721,-2.7189,-2.7197,-2.7173,-2.7184,-2.7136,-2.7134,-2.7154,-2.7131,-2.7178,-2.7124,-2.714,-2.7141,-2.7148,-2.7278,-2.731,-2.7401,-2.7231,-2.7233,-2.7234,0,-2.7314,-2.731,-2.7359,-2.7332,-2.7336,-2.7356,-2.7352,-2.736,-2.7346,-2.7329,-2.7326,-2.7288,-2.7311,-2.7258,-2.729,-2.7254,-2.7258,-2.7248,-2.725,-2.7252,-2.7194,-2.7286,-2.7429,-2.7444,-2.7252,-2.7251,-2.7249,0,-2.7423,-2.7429,-2.746,-2.7456,-2.7424,-2.744,-2.7428,-2.7411,-2.7413,-2.741,-2.7411,-2.7411,-2.7412,-2.7413,-2.7377,-2.7342,-2.7415,-2.7358,-2.7403,-2.7405,-2.7423,-2.7423,-2.7571,-2.7422,-2.7422,-2.7422,-2.7421,0,-2.7532,-2.7564,-2.7508,-2.7527,-2.7562,-2.7515,-2.7552,-2.7534,-2.7519,-2.7535,-2.7484,-2.75,-2.745,-2.7461,-2.7433,-2.7465,-2.7465,-2.7454,-2.7446,-2.746,-2.7462,-2.7463,-2.7457,-2.7425,-2.7425,-2.7424,-2.7423,0,-2.766,-2.7623,-2.7653,-2.7621,-2.7613,-2.7641,-2.7614,-2.7631,-2.7606,-2.7626,-2.7628,-2.759,-2.7601,-2.7564,-2.7568,-2.755,-2.7598,-2.7579,-2.7603,-2.7598,-2.7646,-2.7643,-2.7803,-2.7822,-2.7659,-2.766,-2.7662,0,-2.7733,-2.7756,-2.7727,-2.7733,-2.7724,-2.7734,-2.7736,-2.7691,-2.7696,-2.7682,-2.7701,-2.7707,-2.7709,-2.7729,-2.7702,-2.7706,-2.7688,-2.7743,-2.7688,-2.7701,-2.7692,-2.7692,-2.7695,-2.7756,-2.7758,-2.776,-2.7761,0,-2.7867,-2.7848,-2.7852,-2.7851,-2.7855,-2.7852,-2.7845,-2.7854,-2.7805,-2.7813,-2.7823,-2.7825,-2.7829,-2.7837,-2.7834,-2.7823,-2.7785,-2.7778,-2.7789,-2.7804,-2.7818,-2.7814,-2.7637,-2.7775,-2.7774,-2.7773,-2.7772,-2.7771,-2.7971,-2.799,-2.7973,-2.798,-2.797,-2.7965,-2.798,-2.7957,-2.7964,-2.7964,-2.7937,-2.7952,-2.7938,-2.7931,-2.7924,-2.7936,-2.7911,-2.7926,-2.793,-2.7936,-2.7945,-2.7814,-2.7935,-2.7935,-2.7935,-2.7934,-2.7934,0,-2.8105,-2.8091,-2.8098,-2.809,-2.8096,-2.8058,-2.8049,-2.8057,-2.8071,-2.8061,-2.8064,-2.8076,-2.8083,-2.8057,-2.8061,-2.8076,-2.8059,-2.8079,-2.8079,-2.8077,-2.7966,-2.7958,-2.8093,-2.8093,-2.8093,-2.8093,-2.8093,-2.8093,-2.8176,-2.8206,-2.8185,-2.8211,-2.8197,-2.8211,-2.821,-2.8206,-2.8197,-2.8213,-2.8218,-2.82,-2.8184,-2.8186,-2.8192,-2.8184,-2.8189,-2.8215,-2.8202,-2.81,-2.8084,-2.807,-2.8061,-2.8216,-2.8216,-2.8312,-2.8312,-2.8313]},{"header":{"parameterUnit":"m.s-1","parameterCategory":1,"la1":30.2991,"la2":30.254,"lo1":-89.0895,"lo2":-89.0444,"dy":0.0017,"dx":0.0017,"nx":28,"ny":28,"refTime":"2025-03-01T09:00:00:Z","depth":0,"parameterNumber":3,"parameterNumberName":"V-component_of_WINDS"},"data":[0,0,0,0,0,0,0,0,0,0,0,0,0,0,0,0,0,0,0,0,0,0,0,0,0,0,0,0,0,0,0,0,0,0,0,0,0,0,0,0,0,0,0,0,0,0,0,0,0,0,0,0,0,0,0,0,0,0,-2.601,-2.6011,0,-2.6094,-2.6095,-2.6096,-2.6126,-2.6126,-2.6125,-2.6125,-2.621,-2.6212,-2.6215,0,0,0,0,0,0,0,0,0,0,0,0,0,-2.5875,-2.5877,-2.601,-2.6011,-2.6012,-2.6094,-2.6095,-2.6096,-2.6126,-2.6126,-2.6125,-2.6125,-2.6209,-2.6212,-2.6215,0,0,0,0,0,0,0,0,0,0,0,0,0,-2.5944,-2.5878,-2.601,-2.6037,-2.604,-2.6094,-2.6095,-2.6096,-2.6126,-2.6126,-2.6125,-2.6125,-2.6208,-2.6212,-2.6215,-2.6248,0,0,-2.6227,-2.6229,0,0,0,0,0,0,0,0,-2.594,-2.5949,-2.6032,-2.6035,-2.6039,-2.6099,-2.6078,-2.6147,-2.6126,-2.6093,-2.6125,-2.6125,-2.6173,-2.618,-2.6197,-2.6252,-2.6255,-2.6227,-2.623,-2.6231,-2.6232,0,0,0,0,0,0,0,-2.5935,-2.5945,-2.6043,-2.6033,-2.6037,-2.6045,-2.6054,-2.6092,-2.6135,-2.6096,-2.6099,-2.6108,-2.6175,-2.6193,-2.6199,-2.6256,-2.6227,-2.6231,-2.6233,-2.6234,-2.6344,-2.6344,0,0,0,0,0,0,-2.5926,-2.5941,-2.604,-2.6046,-2.5987,-2.6047,-2.6058,-2.608,-2.6134,-2.6142,-2.6109,-2.6109,-2.6187,-2.6194,-2.6202,-2.6245,-2.6231,-2.6235,-2.6237,-2.6343,-2.6344,-2.6344,0,0,0,0,0,0,-2.5923,-2.5934,-2.6037,-2.5994,-2.6008,-2.605,-2.6075,-2.6082,-2.61,-2.6144,-2.6151,-2.6119,-2.6186,-2.6196,-2.6236,-2.6248,-2.6237,-2.624,-2.6342,-2.6343,-2.6344,-2.6329,0,0,0,0,0,0,-2.5919,-2.5933,-2.5946,-2.5994,-2.601,-2.607,-2.6076,-2.6084,-2.6106,-2.6108,-2.6155,-2.6163,-2.6187,-2.6231,-2.624,-2.6253,-2.6243,-2.6341,-2.6343,-2.6344,-2.6329,-2.6329,-2.633,0,0,0,0,0,-2.5914,-2.5938,-2.5946,-2.5958,-2.6027,-2.6071,-2.608,-2.6108,-2.6107,-2.6121,-2.6149,-2.6161,-2.6245,-2.6234,-2.6245,-2.6259,-2.6341,-2.6342,-2.6344,-2.6328,-2.6329,-2.633,0,0,0,0,0,0,-2.5889,-2.5944,-2.5955,-2.5995,-2.6028,-2.6076,-2.6094,-2.6107,-2.6141,-2.6141,-2.6174,-2.6184,-2.6222,-2.6244,-2.6232,-2.6294,-2.6294,-2.6297,-2.6278,-2.6279,-2.628,-2.6274,-2.6246,0,0,0,0,0,-2.5888,-2.592,-2.5966,-2.5997,-2.6013,-2.605,-2.6071,-2.6089,-2.6125,-2.6139,-2.617,-2.6204,-2.6238,-2.626,-2.6293,-2.6332,-2.6343,-2.6347,-2.6347,-2.6347,-2.6351,-2.6374,-2.6377,-2.6349,-2.6349,-2.6349,0,0,-2.5886,-2.5921,-2.5939,-2.5993,-2.6021,-2.6053,-2.6062,-2.6095,-2.612,-2.6144,-2.6184,-2.6208,-2.6248,-2.6288,-2.6307,-2.6308,-2.6361,-2.6349,-2.6349,-2.6352,-2.6376,-2.6379,-2.6381,-2.635,-2.635,-2.635,0,0,-2.5901,-2.5929,-2.5959,-2.5987,-2.603,-2.6054,-2.6061,-2.6108,-2.6125,-2.6166,-2.6185,-2.6214,-2.6271,-2.63,-2.6321,-2.6347,-2.636,-2.6357,-2.636,-2.6383,-2.6385,-2.6387,-2.6398,-2.6401,-2.636,-2.636,-2.636,0,-2.5893,-2.5943,-2.5972,-2.6005,-2.6029,-2.6053,-2.6084,-2.6109,-2.616,-2.6176,-2.6176,-2.625,-2.6278,-2.6326,-2.6332,-2.6349,-2.6358,-2.6352,-2.6383,-2.6385,-2.6387,-2.6398,-2.6402,-2.6359,-2.6359,-2.6359,-2.6359,0,-2.5933,-2.5967,-2.5985,-2.6035,-2.6061,-2.6092,-2.6127,-2.6149,-2.6165,-2.619,-2.6232,-2.6267,-2.6309,-2.6321,-2.6337,-2.6371,-2.6371,-2.6376,-2.6377,-2.6389,-2.64,-2.6404,-2.6358,-2.6359,-2.6359,-2.6359,0,0,-2.5933,-2.6,-2.6006,-2.603,-2.6079,-2.6106,-2.6139,-2.618,-2.62,-2.6234,-2.6263,-2.6311,-2.6317,-2.6342,-2.6361,-2.638,-2.6401,-2.6384,-2.6385,-2.6387,-2.6442,-2.6439,-2.6443,-2.6409,-2.641,-2.6411,-2.6439,0,-2.5955,-2.6015,-2.6043,-2.6091,-2.6124,-2.6147,-2.6176,-2.6209,-2.6233,-2.6264,-2.629,-2.6325,-2.6329,-2.6345,-2.6365,-2.6394,-2.6412,-2.6392,-2.6437,-2.6438,-2.6428,-2.6448,-2.6445,-2.647,-2.6444,-2.6444,-2.6445,0,-2.5988,-2.6024,-2.6076,-2.6122,-2.6137,-2.6162,-2.6203,-2.6232,-2.6271,-2.6287,-2.6315,-2.6334,-2.6369,-2.6366,-2.6416,-2.6402,-2.6422,-2.6439,-2.6441,-2.6447,-2.6443,-2.6457,-2.6479,-2.6483,-2.6451,-2.6451,-2.645,0,-2.5985,-2.6046,-2.6085,-2.6105,-2.616,-2.6177,-2.6201,-2.6239,-2.6262,-2.6298,-2.6314,-2.6353,-2.6374,-2.6404,-2.6433,-2.6428,-2.6481,-2.648,-2.6496,-2.6495,-2.6507,-2.6506,-2.6534,-2.6517,-2.6517,-2.6517,-2.6517,0,-2.6007,-2.6038,-2.6085,-2.6109,-2.6145,-2.6177,-2.6211,-2.6236,-2.627,-2.63,-2.6322,-2.6349,-2.6385,-2.6417,-2.6439,-2.6478,-2.6487,-2.6502,-2.6508,-2.6501,-2.6499,-2.6515,-2.6515,-2.6518,-2.6518,-2.6518,-2.6517,0,-2.601,-2.6043,-2.6088,-2.6137,-2.615,-2.6174,-2.6216,-2.624,-2.6265,-2.6303,-2.6313,-2.6353,-2.6392,-2.6423,-2.6474,-2.6489,-2.653,-2.6536,-2.6518,-2.6521,-2.6536,-2.6535,-2.6576,-2.6584,-2.656,-2.6561,-2.6561,0,-2.6023,-2.6048,-2.61,-2.6122,-2.6145,-2.618,-2.6205,-2.6237,-2.6262,-2.6308,-2.6327,-2.6368,-2.6402,-2.6463,-2.6496,-2.6535,-2.6543,-2.6555,-2.6549,-2.6542,-2.6545,-2.6544,-2.6548,-2.6556,-2.6556,-2.6556,-2.6556,0,-2.6042,-2.6058,-2.6093,-2.6134,-2.6163,-2.6197,-2.6231,-2.6248,-2.6286,-2.6313,-2.6353,-2.638,-2.6432,-2.6473,-2.6515,-2.654,-2.6555,-2.6558,-2.6564,-2.6558,-2.6547,-2.6555,-2.6521,-2.6557,-2.6557,-2.6557,-2.6557,-2.6557,-2.6052,-2.6075,-2.6116,-2.6155,-2.6184,-2.6216,-2.6242,-2.6271,-2.6306,-2.6352,-2.6368,-2.641,-2.6449,-2.6508,-2.6533,-2.6566,-2.6568,-2.6576,-2.6578,-2.658,-2.658,-2.654,-2.6574,-2.6574,-2.6574,-2.6574,-2.6574,0,-2.6073,-2.6101,-2.6137,-2.6185,-2.6215,-2.6227,-2.6266,-2.6291,-2.6328,-2.6363,-2.6397,-2.6444,-2.6484,-2.652,-2.6562,-2.6582,-2.659,-2.6592,-2.6591,-2.6597,-2.6576,-2.6567,-2.6585,-2.6585,-2.6585,-2.6585,-2.6585,-2.6585,-2.6088,-2.613,-2.615,-2.6207,-2.6234,-2.6276,-2.6298,-2.6327,-2.6356,-2.6408,-2.6441,-2.6465,-2.6501,-2.6546,-2.6583,-2.6593,-2.6608,-2.6608,-2.662,-2.66,-2.6598,-2.6597,-2.6589,-2.6611,-2.6611,-2.6638,-2.6639,-2.6639]}]]